Location: Marsån
(66.4167°N, 22.2833°E)
Time: 12:02:07
(UTC+00:00)

Cosmos 2237 Rocket - Pass Details

Date: 24 February 2024
Orbit: 833 x 851 km, 71.0° (Epoch: 15 April)

Event Time Altitude Azimuth Distance (km) Brightness Sun altitude
Rises 17:28:37 0° 289° (WNW) 3,398 7.1 -13.1°
Reaches altitude 10° 17:31:07 10° 293° (WNW) 2,466 5.9 -13.4°
Maximum altitude 17:36:42 58° 13° (NNE) 983 2.5 -13.9°
Enters shadow 17:40:34 20° 87° (E) 1,850 3.4 -14.3°
